PEGASUS R/B

Last updated on Wed Jul 07 2021 06:08:39 GMT+0000 (Coordinated Universal Time)

1 48845U 21051B 21187.80964783 .00006009 00000-0 12066-3 0 9995 2 48845 97.4783 101.9185 0035901 203.9747 155.9833 15.46366175 3623
UTC large
Height (km)
Speed (km/s)
/
Latitude / Longitude
Inclination (degrees)
Orbital Period (minutes)
Azimuth
Elevation
Range (km)
Doppler Factor

Next 0 passes for location: London (51.5072 / 0.1276)

Sorry there are no passes over London.